Weather History for Biloxi, MS

Change the Weather History Date:

Wednesday, May 8, 2013

  Actual Average Record
Temperature  
Mean Temperature 68 °F -  
Max Temperature 79 °F 81 °F 89 °F (1967)
Min Temperature 59 °F 65 °F 47 °F (1992)
Cooling Degree Days 4    
Growing Degree Days 18 (Base 50)    
Moisture  
Dew Point 62 °F    
Average Humidity 89    
Maximum Humidity 100    
Minimum Humidity 51    
Precipitation  
Precipitation 0.00 in - - ()
Sea Level Pressure  
Sea Level Pressure 30.05 in    
Wind  
Wind Speed 2 mph (SW)    
Max Wind Speed 15 mph    
Max Gust Speed -    
Visibility 5 miles    
Events Fog    
Averages and records for this station are not official NWS values.
T = Trace of Precipitation, MM = Missing Value Source: NWS Daily Summary

Daily Weather History Graph

Daily Weather History Graph

Search for Another Location

Airport:

Trip Planner

Search our weather history database for the weather conditions in past years. The results will help you decide how hot, cold, wet, or windy it might be!

Date:

Astronomy

May. 08, 2013 Rise Set
Actual Time 6:06 AM CDT 7:38 PM CDT
Civil Twilight 5:40 AM CDT 8:04 PM CDT
Nautical Twilight 5:09 AM CDT 8:35 PM CDT
Astronomical Twilight 4:36 AM CDT 9:08 PM CDT
Moon 5:08 AM CDT (5/8) 6:39 PM CDT (5/8)
Length of Visible Light 14h 24m
Length of Day
13h 32m
Waning Crescent, 2% of the Moon is Illuminated
May 8
Waning Crescent
May 9
New
May 17
First Quarter
May 24
Full
May 31
Last Quarter

Hourly Weather History & Observations

Time (CDT) Temp. Dew Point Humidity Pressure Visibility Wind Dir Wind Speed Gust Speed Precip Events Conditions
12:53 AM 66.2 °F 64.4 °F 94% 30.04 in 5.0 mi Calm Calm - N/A   Clear
12:58 AM 66.2 °F 64.6 °F 94% 30.05 in 3.0 mi Calm Calm - N/A   Clear
1:08 AM 64.4 °F 64.4 °F 100% 30.03 in 5.0 mi Calm Calm - N/A   Clear
1:13 AM 64.4 °F 64.4 °F 100% 30.03 in 2.5 mi Calm Calm - N/A   Clear
1:18 AM 66.2 °F 64.4 °F 94% 30.03 in 2.5 mi Calm Calm - N/A   Clear
1:23 AM 64.4 °F 64.4 °F 100% 30.03 in 5.0 mi Calm Calm - N/A   Clear
1:33 AM 64.4 °F 62.6 °F 94% 30.03 in 2.5 mi Calm Calm - N/A   Clear
1:38 AM 64.4 °F 64.4 °F 100% 30.03 in 1.0 mi Calm Calm - N/A   Clear
1:43 AM 64.4 °F 64.4 °F 100% 30.03 in 0.8 mi Calm Calm - N/A   Clear
1:48 AM 64.4 °F 64.4 °F 100% 30.02 in 1.2 mi Calm Calm - N/A   Clear
1:53 AM 64.4 °F 64.4 °F 100% 30.02 in 2.5 mi Calm Calm - N/A   Clear
1:58 AM 64.4 °F 64.4 °F 100% 30.03 in 2.5 mi Calm Calm - N/A   Clear
2:03 AM 64.4 °F 64.4 °F 100% 30.02 in 2.5 mi Calm Calm - N/A   Clear
2:08 AM 64.4 °F 62.6 °F 94% 30.02 in 0.5 mi Calm Calm - N/A Fog Fog
2:13 AM 64.4 °F 62.6 °F 94% 30.02 in 0.2 mi Calm Calm - N/A Fog Fog
2:18 AM 64.4 °F 62.6 °F 94% 30.01 in 0.8 mi Calm Calm - N/A   Clear
2:23 AM 64.4 °F 62.6 °F 94% 30.01 in 4.0 mi Calm Calm - N/A   Clear
2:28 AM 64.4 °F 62.6 °F 94% 30.01 in 2.0 mi Calm Calm - N/A   Clear
2:33 AM 64.4 °F 62.6 °F 94% 30.01 in 0.5 mi Calm Calm - N/A Fog Fog
2:38 AM 64.4 °F 62.6 °F 94% 30.01 in 0.2 mi Calm Calm - N/A Fog Fog
2:58 AM 62.6 °F 62.6 °F 100% 30.02 in 1.8 mi Calm Calm - N/A   Clear
3:03 AM 62.6 °F 62.6 °F 100% 30.01 in 3.0 mi Calm Calm - N/A   Clear
3:08 AM 62.6 °F 62.6 °F 100% 30.01 in 1.8 mi Calm Calm - N/A   Clear
3:13 AM 62.6 °F 62.6 °F 100% 30.02 in 1.2 mi Calm Calm - N/A   Clear
3:18 AM 62.6 °F 62.6 °F 100% 30.02 in 1.2 mi Calm Calm - N/A   Clear
3:23 AM 62.6 °F 62.6 °F 100% 30.02 in 1.5 mi SSW 3.5 mph - N/A   Clear
3:28 AM 62.6 °F 60.8 °F 94% 30.02 in 0.8 mi Calm Calm - N/A   Clear
3:33 AM 62.6 °F 62.6 °F 100% 30.02 in 1.0 mi Variable 2.3 mph - N/A   Clear
3:38 AM 62.6 °F 60.8 °F 94% 30.02 in 4.0 mi Calm Calm - N/A   Clear
3:43 AM 62.6 °F 62.6 °F 100% 30.02 in 5.0 mi North 1.2 mph - N/A   Clear
3:58 AM 63.0 °F 62.4 °F 98% 30.03 in 6.0 mi NW 2.3 mph - N/A   Clear
4:13 AM 62.6 °F 60.8 °F 94% 30.02 in 5.0 mi Calm Calm - N/A   Clear
4:23 AM 62.6 °F 62.6 °F 100% 30.02 in 5.0 mi Calm Calm - N/A   Clear
4:28 AM 62.6 °F 60.8 °F 94% 30.02 in 3.0 mi Calm Calm - N/A   Clear
4:33 AM 62.6 °F 62.6 °F 100% 30.02 in 4.0 mi Calm Calm - N/A   Clear
4:38 AM 62.6 °F 62.6 °F 100% 30.02 in 9.0 mi Calm Calm - N/A   Clear
4:58 AM 62.6 °F 60.8 °F 94% 30.04 in 8.0 mi Calm Calm - N/A   Clear
5:08 AM 60.8 °F 60.8 °F 100% 30.03 in 7.0 mi Calm Calm - N/A   Clear
5:18 AM 59.0 °F 59.0 °F 100% 30.03 in 10.0 mi NE 3.5 mph - N/A   Clear
5:58 AM 59.4 °F 58.8 °F 98% 30.06 in 9.0 mi NNE 4.6 mph - N/A   Clear
6:58 AM 60.1 °F 59.2 °F 97% 30.09 in 10.0 mi Calm Calm - N/A   Clear
7:58 AM 63.1 °F 61.0 °F 93% 30.10 in 10.0 mi North 2.3 mph - N/A   Clear
8:58 AM 69.1 °F 60.4 °F 74% 30.11 in 10.0 mi Variable 2.3 mph - N/A   Clear
9:58 AM 74.7 °F 61.0 °F 62% 30.12 in 10.0 mi North 1.2 mph - N/A   Clear
10:58 AM 77.0 °F 60.6 °F 57% 30.13 in 10.0 mi SSW 6.9 mph - N/A   Clear
11:58 AM 77.9 °F 58.3 °F 51% 30.12 in 10.0 mi SSW 10.4 mph - N/A   Clear
12:58 PM 78.1 °F 59.4 °F 52% 30.11 in 10.0 mi SSW 10.4 mph - N/A   Clear
1:58 PM 78.8 °F 62.8 °F 58% 30.11 in 10.0 mi SSW 12.7 mph - N/A   Partly Cloudy
2:58 PM 78.6 °F 62.8 °F 58% 30.09 in 10.0 mi SSW 12.7 mph - N/A   Clear
3:58 PM 77.5 °F 63.1 °F 61% 30.08 in 10.0 mi SW 12.7 mph - N/A   Clear
4:58 PM 76.6 °F 66.4 °F 70% 30.07 in 10.0 mi SW 15.0 mph - N/A   Clear
5:58 PM 76.1 °F 63.3 °F 64% 30.07 in 10.0 mi SW 15.0 mph - N/A   Clear
6:58 PM 73.8 °F 63.1 °F 69% 30.07 in 10.0 mi SW 15.0 mph - N/A   Clear
7:58 PM 72.3 °F 63.5 °F 74% 30.08 in 10.0 mi SW 10.4 mph - N/A   Clear
8:58 PM 72.0 °F 61.5 °F 70% 30.09 in 10.0 mi SW 12.7 mph - N/A   Clear
9:58 PM 71.2 °F 61.9 °F 72% 30.10 in 10.0 mi SW 9.2 mph - N/A   Clear
10:58 PM 70.7 °F 63.1 °F 77% 30.11 in 10.0 mi SW 10.4 mph - N/A   Clear
11:58 PM 70.0 °F 64.4 °F 82% 30.11 in 10.0 mi SW 10.4 mph - N/A   Clear